DW8013 Loker BE current weather conditions

sailwx.info

Wind from 246

Air temperature 21.1° C
Dewpoint 15.4° C

Last reported at 2018-Sep-19 10:00 UTC.
Time now 2018-Sep-19 10:38 UTC

Location: N 50°47' E 002°46'.
View on Google Maps.

See reports from other nearby stations

  
Tides and Currents Weather Stations Pressure Air Temp Water Temp Dewpoint Dewpoint Depression Visibility Wind Speed Wind Dir Waves Ship Positions
date/time (UTC)wind fromknots sea level pressurealtimeterstation pressurevisibilityair tempwater tempwave heightnotes
2018-Sep-19 10:00 246 21.1
2018-Sep-19 09:45 210 20.6
2018-Sep-19 09:30 197 20.6
2018-Sep-19 09:15 206 19.4
2018-Sep-19 09:00 183 18.9
2018-Sep-19 08:45 211 18.3
2018-Sep-19 08:30 202 17.8
2018-Sep-19 08:01 205 16.7
2018-Sep-19 07:46 194 15.6
2018-Sep-19 07:31 178 15.0
2018-Sep-19 07:16 209 15.0
2018-Sep-19 07:00 209 14.4
2018-Sep-19 06:45 209 13.9
2018-Sep-19 06:31 209 13.9
2018-Sep-19 06:16 209 13.9
2018-Sep-19 06:00 209 13.9
2018-Sep-19 05:46 209 13.9
2018-Sep-19 05:30 209 13.9
2018-Sep-19 05:16 209 13.9
2018-Sep-19 05:00 209 13.9
2018-Sep-19 04:45 209 13.9
2018-Sep-19 04:30 211 13.9
2018-Sep-19 04:16 210 13.9
2018-Sep-19 04:00 210 13.9
2018-Sep-19 03:46 210 13.9
2018-Sep-19 03:31 210 13.9
2018-Sep-19 03:15 209 13.9
2018-Sep-19 03:00 210 13.9
2018-Sep-19 02:45 210 13.9
2018-Sep-19 02:30 210 13.9
2018-Sep-19 02:15 210 13.9
2018-Sep-19 02:01 210 13.9
2018-Sep-19 01:45 210 13.9
2018-Sep-19 01:30 211 14.4
2018-Sep-19 01:15 211 14.4
2018-Sep-19 01:00 209 13.9
2018-Sep-19 00:45 210 13.9
2018-Sep-19 00:30 210 13.9
2018-Sep-19 00:15 210 13.9
2018-Sep-19 00:00 211 14.4
2018-Sep-18 23:45 211 14.4
2018-Sep-18 23:30 210 14.4
2018-Sep-18 23:15 211 14.4
2018-Sep-18 23:00 210 14.4
2018-Sep-18 22:45 211 14.4
2018-Sep-18 22:30 210 15.0
2018-Sep-18 22:15 211 15.0
2018-Sep-18 22:00 211 15.0
2018-Sep-18 21:45 211 15.6
2018-Sep-18 21:30 211 15.6
2018-Sep-18 21:15 211 15.6
2018-Sep-18 21:00 211 16.1
2018-Sep-18 20:45 210 16.1
2018-Sep-18 20:30 210 16.1
2018-Sep-18 20:15 210 16.7
2018-Sep-18 20:01 210 16.7
2018-Sep-18 19:46 210 17.2
2018-Sep-18 19:31 210 17.2
2018-Sep-18 19:16 211 17.8
2018-Sep-18 19:01 211 17.8
2018-Sep-18 18:47 231 17.8
2018-Sep-18 18:30 227 17.8
2018-Sep-18 18:16 227 18.3
2018-Sep-18 18:02 246 18.3
2018-Sep-18 17:46 243 18.9
2018-Sep-18 17:33 240 18.9
2018-Sep-18 17:16 240 18.9
2018-Sep-18 17:00 257 18.9
2018-Sep-18 16:47 248 19.4
2018-Sep-18 16:31 260 19.4
2018-Sep-18 16:16 258 20.0
2018-Sep-18 16:01 220 20.6
2018-Sep-18 15:45 251 21.1
2018-Sep-18 15:31 256 21.7
2018-Sep-18 15:16 258 21.1
2018-Sep-18 15:00 219 21.1
2018-Sep-18 14:45 244 21.1
2018-Sep-18 14:31 271 22.2
2018-Sep-18 14:15 217 22.8
2018-Sep-18 14:01 231 22.8
2018-Sep-18 13:45 236 22.8
2018-Sep-18 13:30 229 23.3
2018-Sep-18 13:15 174 23.3
2018-Sep-18 13:00 244 22.8
2018-Sep-18 12:45 243 22.8
2018-Sep-18 12:30 264 23.3
2018-Sep-18 12:15 225 23.3
2018-Sep-18 12:00 217 22.8
2018-Sep-18 11:45 242 22.2
2018-Sep-18 11:30 285 22.8
2018-Sep-18 11:15 259 22.8
2018-Sep-18 11:00 299 22.8
2018-Sep-18 10:45 222 22.2
2018-Sep-18 10:30 280 22.2
2018-Sep-18 10:15 238 21.1
2018-Sep-18 10:00 228 21.7
2018-Sep-18 09:45 146 21.1
2018-Sep-18 09:30 302 20.6
2018-Sep-18 09:15 251 20.0
2018-Sep-18 09:00 245 19.4
2018-Sep-18 08:46 224 19.4
2018-Sep-18 08:31 227 18.9
2018-Sep-18 08:16 228 18.9
2018-Sep-18 08:00 230 18.3
2018-Sep-18 07:45 224 17.8
2018-Sep-18 07:30 221 17.2
2018-Sep-18 07:16 232 16.1
2018-Sep-18 07:00 232 15.6
2018-Sep-18 06:45 226 14.4
2018-Sep-18 06:30 223 14.4
2018-Sep-18 06:16 223 13.9
2018-Sep-18 06:00 223 14.4
2018-Sep-18 05:31 223 14.4
2018-Sep-18 05:15 223 14.4
2018-Sep-18 05:01 223 14.4
2018-Sep-18 04:45 223 15.0
2018-Sep-18 04:30 223 15.0
2018-Sep-18 04:15 223 15.0
2018-Sep-18 04:00 223 15.6
2018-Sep-18 03:45 223 15.0
2018-Sep-18 03:30 207 15.0
2018-Sep-18 03:15 209 15.0
2018-Sep-18 03:00 209 15.0
2018-Sep-18 02:45 186 15.6
2018-Sep-18 02:30 186 15.6
2018-Sep-18 02:00 182 15.0
2018-Sep-18 01:45 182 15.6
2018-Sep-18 01:30 183 15.6
2018-Sep-18 01:15 182 16.1
2018-Sep-18 01:00 183 16.1
2018-Sep-18 00:45 183 16.1
2018-Sep-18 00:30 183 16.1
2018-Sep-18 00:15 183 16.1
2018-Sep-17 23:45 183 16.7
2018-Sep-17 23:31 183 16.7
2018-Sep-17 23:16 184 17.2
2018-Sep-17 23:00 184 17.2
2018-Sep-17 22:46 184 17.2
2018-Sep-17 22:30 184 17.8
2018-Sep-17 22:16 184 17.8
2018-Sep-17 22:00 184 18.3
2018-Sep-17 21:46 184 18.3
2018-Sep-17 21:30 184 18.3
2018-Sep-17 21:16 184 18.9
2018-Sep-17 21:00 184 18.9
2018-Sep-17 20:45 184 19.4
2018-Sep-17 20:30 184 20.0
2018-Sep-17 20:15 185 20.0
2018-Sep-17 20:00 185 20.6
2018-Sep-17 19:45 185 20.6
2018-Sep-17 19:30 185 21.1
2018-Sep-17 19:15 185 21.1
2018-Sep-17 18:45 186 21.7
2018-Sep-17 18:30 186 22.8
2018-Sep-17 18:16 187 23.3
2018-Sep-17 18:00 192 23.3
2018-Sep-17 17:45 193 23.9
2018-Sep-17 17:31 193 24.4
2018-Sep-17 17:15 193 24.4
2018-Sep-17 17:00 193 25.0
2018-Sep-17 16:45 194 25.0
2018-Sep-17 16:30 199 25.6
2018-Sep-17 16:15 199 25.6
2018-Sep-17 16:00 192 25.6
2018-Sep-17 15:45 184 26.1
2018-Sep-17 15:30 236 26.1
2018-Sep-17 15:15 203 26.1
2018-Sep-17 15:00 186 26.7
2018-Sep-17 14:45 192 26.1
2018-Sep-17 14:17 213 26.1
2018-Sep-17 14:01 207 26.7
2018-Sep-17 13:46 227 26.1
2018-Sep-17 13:31 259 26.1
2018-Sep-17 13:17 202 26.1
2018-Sep-17 13:01 223 26.1
2018-Sep-17 12:45 207 25.6
2018-Sep-17 12:30 229 25.6
2018-Sep-17 12:16 211 25.0
2018-Sep-17 12:00 178 25.0
2018-Sep-17 11:46 238 24.4
2018-Sep-17 11:15 230 23.9
2018-Sep-17 11:00 236 23.3
2018-Sep-17 10:45 190 22.8
2018-Sep-17 10:30 227 22.2